EW6754 Weather Reports


Display with metric or nautical units.
time (UTC)temp
F
wind
direction
speed
MPH
gust
MPH
rain 1hr
in
rain 24hr
in
rain mn
in
humidity
%
barometer
mb
20260906100033 80 189 0.0 0.0 0.00 0.00 0.00 62 1012.2
20260906094530 80 189 0.0 0.0 0.00 0.00 0.00 64 1012.0
20260906093037 80 189 0.0 0.0 0.00 0.00 0.00 65 1011.9
20260906091524 80 189 0.0 0.0 0.00 0.00 0.00 65 1011.8
20260906090020 80 189 0.0 0.0 0.00 0.00 0.00 67 1011.6
20260906084518 80 189 0.0 0.0 0.00 0.00 0.00 65 1011.4
20260906083022 79 189 0.0 0.0 0.00 0.00 0.00 64 1011.4
20260906081523 79 189 0.0 0.0 0.00 0.00 0.00 63 1011.3
20260906080015 79 189 0.0 0.0 0.00 0.00 0.00 66 1011.2
20260906074514 80 161 0.0 0.0 0.00 0.00 0.00 69 1011.3
20260906073011 80 124 0.0 0.0 0.00 0.00 0.00 69 1011.5
20260906071510 80 124 0.0 0.0 0.00 0.00 0.00 69 1011.6
20260906070010 80 111 0.0 0.0 0.00 0.00 0.00 68 1011.6
20260906064511 80 101 0.0 0.0 0.00 0.00 0.00 68 1011.7
20260906063006 81 144 0.0 0.0 0.00 0.00 0.00 69 1011.6
20260906061503 81 144 0.0 0.0 0.00 0.00 0.00 74 1011.6
20260906060002 81 213 0.0 0.0 0.00 0.00 0.00 75 1012.1
20260906053058 81 213 0.0 0.0 0.00 0.00 0.00 74 1012.2
20260906051600 81 213 0.0 0.0 0.00 0.00 0.00 74 1012.5
20260906050055 81 158 0.0 0.0 0.00 0.00 0.00 74 1012.8
20260906044553 81 135 0.0 0.0 0.00 0.00 0.00 73 1012.9
20260906043053 81 214 0.0 0.0 0.00 0.00 0.00 74 1013.0
20260906041550 81 207 0.0 0.0 0.00 0.00 0.00 75 1013.0
20260906040050 81 165 0.0 0.0 0.00 0.00 0.00 76 1013.1
20260906034547 82 184 0.0 0.0 0.00 0.00 0.00 78 1013.2
20260906033047 82 184 0.0 0.0 0.00 0.00 0.00 78 1013.4
20260906031547 82 189 0.0 0.0 0.00 0.00 0.00 79 1013.4
20260906030048 82 189 0.0 0.0 0.00 0.00 0.00 79 1013.5
20260906024545 82 174 0.0 0.0 0.00 0.00 0.00 79 1013.5
20260906023047 82 110 0.0 0.0 0.00 0.00 0.00 80 1013.5
20260906021548 82 91 0.0 0.0 0.00 0.00 0.00 80 1013.6
20260906020044 82 100 0.0 0.0 0.00 0.00 0.00 80 1013.7
20260906014547 82 91 0.0 0.0 0.00 0.00 0.00 80 1013.5
20260906013043 82 141 0.0 0.0 0.00 0.00 0.00 80 1013.5
20260906011544 83 96 0.0 0.0 0.00 0.00 0.00 80 1013.2
20260906010041 83 217 0.0 0.0 0.00 0.00 0.00 80 1013.1
20260906004543 83 92 0.0 0.0 0.00 0.00 0.00 80 1012.8
20260906003041 83 139 0.0 0.0 0.00 0.00 0.00 80 1012.6
20260906001540 83 100 0.0 0.0 0.00 0.00 0.00 80 1012.4
20260906000040 84 102 0.0 0.0 0.00 0.00 0.00 80 1012.3
20260905234539 84 124 0.0 0.0 0.00 0.00 0.00 79 1012.3
20260905233055 84 105 0.0 0.0 0.00 0.00 0.00 78 1012.1
20260905231548 84 162 0.0 0.0 0.00 0.00 0.00 77 1011.9
20260905230034 85 129 0.0 0.0 0.00 0.00 0.00 76 1012.0
20260905224531 85 168 0.0 0.0 0.00 0.00 0.00 75 1012.0
20260905223031 86 118 0.0 0.0 0.00 0.00 0.00 75 1011.8
20260905221535 87 97 0.0 0.0 0.00 0.00 0.00 73 1011.7
20260905220023 88 157 0.0 0.0 0.00 0.00 0.00 73 1011.6
20260905214519 88 131 0.0 0.0 0.00 0.00 0.00 74 1011.5
20260905213015 88 122 0.0 0.0 0.00 0.00 0.00 72 1011.5
20260905211511 90 123 0.0 0.0 0.00 0.00 0.00 68 1011.4
20260905210008 90 91 0.0 0.0 0.00 0.00 0.00 66 1011.3
20260905204505 89 165 0.0 0.0 0.00 0.00 0.00 70 1011.1
20260905203006 90 152 0.0 0.0 0.00 0.00 0.00 66 1011.1
20260905201503 91 156 0.0 0.0 0.00 0.00 0.00 65 1011.0
20260905200004 91 74 0.0 0.0 0.00 0.00 0.00 65 1010.8
20260905194502 91 175 0.0 9.0 0.00 0.00 0.00 66 1010.7
20260905193100 91 167 0.0 11.0 0.00 0.00 0.00 65 1010.9
20260905191603 92 153 0.0 2.0 0.00 0.00 0.00 64 1010.9
20260905190120 93 167 0.0 0.0 0.00 0.00 0.00 62 1010.8
20260905184613 93 216 0.0 0.0 0.00 0.00 0.00 62 1011.0
20260905183054 90 66 0.0 0.0 0.00 0.00 0.00 69 1011.0
20260905181553 92 71 0.0 5.0 0.00 0.00 0.00 68 1011.3
20260905180046 93 140 0.0 0.0 0.00 0.00 0.00 61 1011.3
20260905174550 92 144 0.0 0.0 0.00 0.00 0.00 66 1011.5
20260905173040 91 120 0.0 1.0 0.00 0.00 0.00 67 1011.7
20260905171536 90 96 0.0 0.0 0.00 0.00 0.00 67 1011.9
20260905170034 91 142 0.0 0.0 0.00 0.00 0.00 66 1012.0
20260905164533 90 127 0.0 0.0 0.00 0.00 0.00 68 1012.3
20260905163032 91 140 0.0 0.0 0.00 0.00 0.00 67 1012.4
20260905161532 91 62 0.0 0.0 0.00 0.00 0.00 66 1012.5
20260905160030 91 32 0.0 0.0 0.00 0.00 0.00 68 1012.8
20260905154528 88 102 0.0 0.0 0.00 0.00 0.00 73 1013.2
20260905153027 89 94 0.0 0.0 0.00 0.00 0.00 69 1013.2
20260905151527 91 92 0.0 0.0 0.00 0.00 0.00 66 1013.3
20260905150027 90 86 0.0 0.0 0.00 0.00 0.00 68 1013.4
20260905144524 90 104 0.0 0.0 0.00 0.00 0.00 70 1013.5
20260905143028 90 118 0.0 2.0 0.00 0.00 0.00 71 1013.7
20260905141520 89 69 0.0 0.0 0.00 0.00 0.00 73 1013.7
20260905140016 88 117 0.0 0.0 0.00 0.00 0.00 74 1013.8
20260905134512 87 195 0.0 0.0 0.00 0.00 0.00 78 1014.0
20260905133013 85 108 0.0 0.0 0.00 0.00 0.00 80 1013.8
20260905131516 84 134 0.0 0.0 0.00 0.00 0.00 80 1013.7
20260905130008 84 106 0.0 0.0 0.00 0.00 0.00 80 1013.7
20260905124513 84 167 0.0 0.0 0.00 0.00 0.00 80 1013.8
20260905123008 84 127 0.0 0.0 0.00 0.00 0.00 80 1014.0
20260905121518 84 115 0.0 0.0 0.00 0.00 0.00 80 1013.8
20260905120009 85 89 0.0 0.0 0.00 0.00 0.00 79 1013.6
20260905114513 84 183 0.0 0.0 0.00 0.00 0.00 80 1013.5
20260905113001 83 188 0.0 0.0 0.00 0.00 0.00 80 1013.4
20260905111602 81 209 0.0 0.0 0.00 0.00 0.00 78 1013.3
20260905110054 80 209 0.0 0.0 0.00 0.00 0.00 70 1013.0
20260905104555 79 209 0.0 0.0 0.00 0.00 0.00 66 1013.0
20260905103054 79 195 0.0 0.0 0.00 0.00 0.00 65 1012.8
20260905101615 79 234 0.0 0.0 0.00 0.00 0.00 67 1012.7